This demonstration page uses our WeatherBlox Daily Observations layout. Learn more.

Left ArrowRight Arrow

Hourly Observations for January 7, 2015

Temp ( °F °C ) Dew Point ( °F °C ) Humidity (%) Winds ( mph kmh ) Pressure ( in mb ) Visibility ( mi km ) Precip ( " mm )
12:15 am 00:15 Clear 12 -11 0 -18 57 57 W 16 26 30.36 1028 10 16.0934 N/A
12:35 am 00:35 Clear 12 -11 -2 -19 52 52 W 10 17 30.36 1028 10 16.0934 N/A
12:55 am 00:55 Clear 12 -11 0 -18 57 57 W 14 22 30.36 1028 10 16.0934 N/A
1:15 am 01:15 Clear 12 -11 0 -18 57 57 W 17 28 30.36 1028 10 16.0934 N/A
1:35 am 01:35 Clear 12 -11 0 -18 57 57 W 20 31 30.36 1028 10 16.0934 N/A
1:55 am 01:55 Mostly Cloudy 12 -11 0 -18 57 57 W 20 31 30.36 1028 7 11.26538 N/A
2:15 am 02:15 Cloudy 12 -11 1 -17 62 62 W 17 28 30.36 1028 4 6.43736 N/A
2:36 am 02:36 Cloudy 12 -11 1 -17 62 62 W 20 31 30.36 1028 2.5 4.02335 N/A
2:55 am 02:55 Cloudy 12 -11 3 -16 67 67 W 17 28 30.39 1029 2 3.21868 N/A
3:15 am 03:15 Cloudy 12 -11 3 -16 67 67 W 18 30 30.39 1029 3 4.82802 N/A
3:35 am 03:35 Cloudy 12 -11 1 -17 62 62 W 20 31 30.39 1029 4 6.43736 N/A
3:55 am 03:55 Cloudy 12 -11 1 -17 62 62 WNW 20 31 30.39 1029 4 6.43736 N/A
4:15 am 04:15 Cloudy 10 -12 0 -18 61 61 WNW 22 35 30.42 1030 2.5 4.02335 N/A
4:35 am 04:35 Cloudy 10 -12 0 -18 61 61 NW 18 30 30.42 1030 1.75 2.816345 N/A
4:55 am 04:55 Mostly Cloudy 9 -13 -4 -20 56 56 NW 23 37 30.42 1030 3 4.82802 N/A
5:15 am 05:15 Mostly Cloudy 9 -13 -4 -20 56 56 NW 21 33 30.45 1031 4 6.43736 N/A
5:35 am 05:35 Mostly Cloudy 7 -14 -6 -21 56 56 NW 15 24 30.45 1031 7 11.26538 N/A
5:55 am 05:55 Mostly Cloudy 7 -14 -6 -21 56 56 NW 18 30 30.45 1031 5 8.0467 N/A
6:15 am 06:15 Mostly Cloudy 7 -14 -6 -21 56 56 NW 21 33 30.48 1032 5 8.0467 N/A
6:35 am 06:35 Partly Cloudy 5 -15 -8 -22 55 55 WNW 20 31 30.48 1032 7 11.26538 N/A
6:55 am 06:55 Clear 5 -15 -8 -22 55 55 WNW 14 22 30.48 1032 7 11.26538 N/A
7:15 am 07:15 Partly Cloudy 5 -15 -8 -22 55 55 WNW 20 31 30.5 1033 7 11.26538 N/A
7:35 am 07:35 Partly Cloudy 3 -16 -9 -23 55 55 NW 17 28 30.5 1033 10 16.0934 N/A
7:55 am 07:55 Clear 3 -16 -11 -24 50 50 NW 18 30 30.53 1034 10 16.0934 N/A
8:15 am 08:15 Sunny 3 -16 -11 -24 50 50 WNW 20 31 30.53 1034 10 16.0934 N/A
8:35 am 08:35 Sunny 3 -16 -11 -24 50 50 WNW 18 30 30.53 1034 10 16.0934 N/A
8:55 am 08:55 Sunny 3 -16 -11 -24 50 50 WNW 17 28 30.56 1035 10 16.0934 N/A
9:15 am 09:15 Sunny 3 -16 -11 -24 50 50 WNW 18 30 30.59 1036 10 16.0934 N/A
9:35 am 09:35 Sunny 3 -16 -11 -24 50 50 NW 18 30 30.59 1036 10 16.0934 N/A
9:55 am 09:55 Sunny 5 -15 -13 -25 42 42 NW 15 24 30.59 1036 10 16.0934 N/A
10:15 am 10:15 Sunny 5 -15 -13 -25 42 42 NW 18 30 30.62 1037 10 16.0934 N/A
10:35 am 10:35 Sunny 5 -15 -13 -25 42 42 NW 18 30 30.62 1037 10 16.0934 N/A
10:55 am 10:55 Sunny 5 -15 -13 -25 42 42 WNW 20 31 30.65 1038 7 11.26538 N/A
11:15 am 11:15 Sunny 5 -15 -13 -25 42 42 WNW 20 31 30.65 1038 7 11.26538 N/A
11:35 am 11:35 Sunny 5 -15 -13 -25 42 42 NW 22 35 30.65 1038 7 11.26538 N/A
11:56 am 11:56 Sunny 7 -14 -13 -25 39 39 WNW 18 30 30.65 1038 10 16.0934 N/A
12:15 pm 12:15 Sunny 7 -14 -13 -25 39 39 WNW 21 33 30.65 1038 5 8.0467 N/A
12:35 pm 12:35 Sunny 7 -14 -13 -25 39 39 WNW 22 35 30.68 1039 7 11.26538 N/A
12:55 pm 12:55 Sunny 7 -14 -13 -25 39 39 WNW 22 35 30.68 1039 10 16.0934 N/A
1:15 pm 13:15 Sunny 7 -14 -15 -26 36 36 NW 20 31 30.68 1039 7 11.26538 N/A
1:35 pm 13:35 Sunny 7 -14 -13 -25 39 39 WNW 24 39 30.68 1039 10 16.0934 N/A
1:55 pm 13:55 Sunny 7 -14 -13 -25 39 39 WNW 24 39 30.68 1039 10 16.0934 N/A
2:16 pm 14:16 Sunny 7 -14 -13 -25 39 39 WNW 21 33 30.71 1040 10 16.0934 N/A
2:35 pm 14:35 Sunny 7 -14 -13 -25 39 39 WNW 18 30 30.71 1040 10 16.0934 N/A
2:55 pm 14:55 Sunny 7 -14 -13 -25 39 39 NW 16 26 30.71 1040 10 16.0934 N/A
3:15 pm 15:15 Sunny 5 -15 -13 -25 42 42 WNW 18 30 30.77 1042 10 16.0934 N/A
3:35 pm 15:35 Sunny 5 -15 -13 -25 42 42 WNW 18 30 30.77 1042 10 16.0934 N/A
3:56 pm 15:56 Sunny 5 -15 -15 -26 39 39 NW 18 30 30.77 1042 10 16.0934 N/A
4:15 pm 16:15 Sunny 5 -15 -15 -26 39 39 WNW 18 30 30.8 1043 10 16.0934 N/A
4:35 pm 16:35 Sunny 5 -15 -15 -26 39 39 NW 18 30 30.8 1043 10 16.0934 N/A
4:55 pm 16:55 Sunny 5 -15 -15 -26 39 39 WNW 18 30 30.83 1044 10 16.0934 N/A
5:15 pm 17:15 Sunny 3 -16 -17 -27 38 38 WNW 16 26 30.83 1044 10 16.0934 N/A
5:35 pm 17:35 Clear 3 -16 -15 -26 42 42 WNW 18 30 30.83 1044 10 16.0934 N/A
5:55 pm 17:55 Clear 1 -17 -17 -27 42 42 WNW 16 26 30.83 1044 10 16.0934 N/A
6:16 pm 18:16 Clear 1 -17 -17 -27 42 42 WNW 18 30 30.83 1044 10 16.0934 N/A
6:35 pm 18:35 Clear 1 -17 -17 -27 42 42 WNW 14 22 30.86 1045 10 16.0934 N/A
6:55 pm 18:55 Clear 1 -17 -17 -27 42 42 WNW 16 26 30.86 1045 10 16.0934 N/A
7:15 pm 19:15 Clear 0 -18 -15 -26 50 50 WNW 18 30 30.86 1045 10 16.0934 N/A
7:35 pm 19:35 Clear 0 -18 -15 -26 50 50 WNW 15 24 30.86 1045 10 16.0934 N/A
7:56 pm 19:56 Clear 0 -18 -15 -26 50 50 WNW 17 28 30.86 1045 10 16.0934 N/A
8:15 pm 20:15 Clear 0 -18 -15 -26 50 50 WNW 13 20 30.86 1045 10 16.0934 N/A
8:36 pm 20:36 Clear 0 -18 -15 -26 50 50 WNW 14 22 30.86 1045 10 16.0934 N/A
8:55 pm 20:55 Clear -2 -19 -15 -26 54 54 WNW 12 19 30.86 1045 10 16.0934 N/A
9:15 pm 21:15 Clear -2 -19 -15 -26 54 54 W 12 19 30.86 1045 10 16.0934 N/A
9:35 pm 21:35 Partly Cloudy -2 -19 -15 -26 54 54 WNW 12 19 30.86 1045 10 16.0934 N/A
9:55 pm 21:55 Mostly Cloudy -2 -19 -15 -26 54 54 W 13 20 30.86 1045 10 16.0934 N/A
10:15 pm 22:15 Partly Cloudy -4 -20 -15 -26 59 59 W 13 20 30.86 1045 10 16.0934 N/A
10:35 pm 22:35 Clear -4 -20 -17 -27 54 54 W 12 19 30.86 1045 10 16.0934 N/A
10:55 pm 22:55 Clear -4 -20 -17 -27 54 54 W 12 19 30.86 1045 10 16.0934 N/A
11:15 pm 23:15 Clear -4 -20 -17 -27 54 54 WNW 12 19 30.86 1045 10 16.0934 N/A
11:35 pm 23:35 Clear -6 -21 -18 -28 54 54 W 9 15 30.83 1044 10 16.0934 N/A
11:55 pm 23:55 Clear -6 -21 -18 -28 54 54 W 9 15 30.83 1044 10 16.0934 N/A

Powered by AerisWeather